Theta_e
329 334 333 323 305 304 302 305 302 305 306 311 315 318 315 317 313 306 329 335 335 336 339 343 346 347 347 345 344 344 345 345 344 343 342 340 339 339 342 343 341 339 338 337 336 334 332 331 332
328 333 324 311 303 300 300 304 303 305 310 315 317 317 316 314 324 326 327 335 336 337 339 341 344 346 346 345 344 343 342 341 340 339 338 338 338 337 336 338 338 340 338 337 336 334 333 331 330
327 327 310 305 305 300 299 302 305 309 311 311 311 317 318 319 325 327 333 334 336 337 339 340 344 346 345 343 343 343 341 339 339 338 336 336 335 336 334 334 335 337 340 337 336 335 333 332 330
321 314 310 302 304 309 306 305 307 307 308 313 314 311 320 327 328 331 335 334 334 336 339 340 345 346 344 344 343 342 341 341 338 337 335 335 334 335 334 333 333 334 336 339 336 335 334 332 331
316 311 302 300 305 310 305 308 306 306 305 305 310 311 316 328 332 334 333 333 332 333 336 340 344 345 345 345 344 343 342 341 338 336 334 334 333 333 332 332 333 332 331 333 334 335 333 332 332
307 308 298 298 303 308 306 308 307 305 305 311 314 314 316 329 331 332 334 333 334 333 335 338 336 340 343 344 345 345 344 343 339 338 335 335 333 333 334 333 332 331 329 329 329 329 331 332 332
305 304 300 301 303 304 305 308 304 304 304 305 316 310 319 325 330 333 334 333 333 334 334 334 335 336 334 338 339 341 343 342 341 340 339 337 336 336 335 335 333 332 331 330 330 330 329 328 327
307 305 300 300 302 302 307 307 308 308 304 310 319 312 316 324 330 332 333 332 331 332 332 332 333 334 333 334 333 335 338 338 338 337 335 333 333 333 333 331 333 333 333 333 333 333 332 331 331
309 301 298 301 303 304 307 307 309 308 307 311 313 318 322 328 331 329 328 328 329 331 331 331 332 332 332 332 331 330 332 333 333 332 330 329 329 330 330 328 330 335 336 336 336 336 335 333 331
303 300 301 306 306 306 306 308 307 307 308 310 316 322 328 327 328 326 326 326 326 328 330 331 331 331 331 333 330 330 332 332 332 332 330 328 327 328 331 326 326 330 331 334 336 336 333 328 326
304 300 304 306 309 308 307 307 308 308 305 311 317 322 326 325 324 326 325 327 327 329 332 332 332 331 331 330 327 327 327 328 329 329 328 327 327 324 326 326 325 324 322 325 328 327 327 325 325
302 306 305 307 309 308 307 309 306 306 307 315 324 326 325 324 323 324 324 326 327 327 330 332 333 331 331 329 327 326 326 325 325 327 327 325 324 322 322 323 324 323 324 323 323 323 324 324 325
305 305 307 306 308 307 309 306 306 306 309 320 324 325 324 324 323 324 325 327 327 327 328 329 330 330 330 328 328 327 326 326 326 326 326 325 323 323 323 323 323 323 324 323 322 322 323 323 324
308 308 306 307 307 308 307 305 307 307 314 319 322 319 322 322 323 323 323 324 326 327 327 328 329 330 330 328 328 328 328 328 327 327 327 327 325 324 324 324 324 323 324 324 324 324 323 323 323
309 302 304 305 305 307 307 303 303 308 317 317 317 317 319 321 322 323 323 323 325 326 327 328 328 329 329 328 328 329 328 329 327 328 328 328 328 326 325 324 324 324 325 324 323 323 322 321 323
304 303 296 303 304 305 306 299 305 309 314 313 314 314 317 319 321 322 323 323 325 325 325 328 331 329 329 328 329 329 329 329 328 328 329 329 329 328 326 325 325 326 325 325 323 323 322 322 322
301 295 296 300 303 302 304 300 304 308 310 310 310 312 315 316 317 319 322 322 323 324 325 325 327 328 329 329 328 329 329 329 329 329 328 329 330 329 328 327 327 327 326 325 324 323 325 326 325
294 295 298 298 299 300 299 299 299 305 308 307 307 308 310 311 315 317 319 321 322 322 323 324 325 326 327 327 327 326 326 327 328 328 329 329 329 330 328 327 327 327 326 325 322 320 320 320 318
300 298 296 297 301 298 297 298 299 303 302 301 304 306 308 310 309 308 308 314 309 308 309 310 317 316 323 323 322 322 322 323 324 325 327 328 329 325 326 327 325 323 321 319 318 316 315 314 315
299 297 296 299 300 299 296 296 298 301 301 303 304 305 307 302 299 301 303 303 304 304 306 307 309 309 309 311 314 318 316 314 314 314 317 317 317 318 320 320 319 319 318 315 314 313 312 313 314
297 296 296 296 299 299 297 295 295 299 301 302 303 303 302 300 297 298 300 300 301 302 303 306 307 307 307 309 311 310 310 310 310 312 313 316 316 315 315 315 315 314 314 313 314 314 314 314 314
294 301 299 296 295 290 297 288 296 297 298 301 304 305 300 298 298 299 299 300 300 301 303 305 305 304 304 305 305 306 306 306 307 308 310 311 313 314 314 313 312 311 311 311 311 314 313 312 311
296 301 298 297 294 291 292 290 294 295 294 298 300 298 298 299 300 299 301 302 301 300 300 301 301 301 301 301 302 302 302 303 305 305 305 307 310 311 311 310 309 308 308 308 307 308 308 310 312
302 297 295 296 293 285 289 289 289 294 295 296 295 297 297 298 298 298 299 301 300 298 298 300 300 299 299 299 299 299 299 299 299 300 301 302 304 307 307 307 306 305 304 304 305 305 306 306 307
298 293 282 281 283 281 287 287 290 292 295 298 296 297 298 299 298 297 296 297 297 297 297 299 298 297 297 297 297 297 296 296 296 296 297 297 298 300 301 302 301 301 301 301 302 301 300 301 300
295 291 284 279 278 280 286 284 290 292 294 294 296 297 296 296 296 296 296 296 297 297 297 297 297 297 296 296 295 295 295 294 294 294 294 294 295 296 297 297 297 297 298 298 298 297 297 298 297
293 288 290 283 280 280 282 284 288 292 291 292 294 296 295 296 297 297 297 296 296 296 297 296 296 296 295 295 295 294 294 294 293 293 292 292 293 294 294 293 293 294 294 295 294 294 294 294 294
294 294 285 284 276 274 278 281 282 288 290 292 292 294 294 296 296 296 296 296 296 296 296 296 295 295 294 294 293 293 293 292 292 292 291 291 291 291 291 291 291 291 292 292 291 291 292 291 291
289 288 287 287 282 277 276 279 286 287 291 291 292 293 295 295 295 295 296 296 296 296 295 294 293 292 292 292 292 291 291 291 290 290 289 289 290 290 290 290 290 289 289 290 289 289 289 289 289
292 289 288 281 279 280 281 280 290 289 290 292 291 293 294 295 295 295 295 295 294 293 293 291 290 290 290 291 290 290 289 289 288 288 288 288 288 288 288 288 288 288 288 288 287 287 287 287 287
Wind_Speed
4 5 2 4 3 3 4 3 1 4 3 3 3 10 9 4 2 3 3 9 16 12 8 8 12 15 15 15 14 14 13 13 12 11 11 11 11 11 11 11 9 11 11 12 10 10 10 9 9
1 3 4 2 3 1 4 2 4 1 6 8 9 5 6 2 3 8 6 11 16 13 9 7 12 15 15 14 13 12 12 11 10 10 9 8 9 9 9 8 7 8 8 10 10 9 8 8 7
4 2 3 3 2 2 3 1 6 2 3 2 5 6 4 4 6 8 12 14 14 11 9 8 12 14 14 13 12 12 12 11 10 8 8 7 7 7 7 7 7 6 8 8 7 8 7 6 5
3 4 4 3 2 5 5 5 4 6 2 7 5 7 4 4 7 8 16 15 14 10 7 11 13 14 14 12 12 12 11 10 8 8 7 7 6 6 6 6 6 5 5 6 5 6 6 4 2
3 3 2 2 2 6 3 7 4 5 3 3 2 3 3 4 12 18 15 13 14 9 7 8 12 13 13 12 11 10 10 9 8 8 7 7 7 6 4 5 5 4 3 3 5 6 4 2 1
3 3 2 2 3 1 2 4 6 4 3 3 6 5 2 6 15 13 13 11 11 11 8 7 8 8 9 9 8 8 9 8 7 8 7 7 6 6 6 4 3 2 1 1 0 2 2 3 4
3 3 3 2 4 2 5 4 6 7 7 2 9 5 2 4 9 12 11 10 9 9 8 6 6 7 7 7 7 8 9 8 7 6 6 5 5 4 5 5 5 5 4 4 4 4 4 5 6
1 3 2 2 1 5 4 4 4 7 3 6 8 7 7 6 12 10 9 9 8 8 8 7 6 6 6 5 7 7 9 8 7 7 6 5 6 6 6 7 7 7 7 7 6 6 6 7 7
0 2 3 3 4 5 3 5 1 2 7 3 1 7 8 12 14 10 8 5 6 6 7 6 6 6 6 6 6 8 9 8 8 7 8 7 4 6 7 7 9 10 9 9 9 9 9 9 9
3 3 6 4 2 1 3 4 7 5 4 4 4 6 16 15 15 13 10 10 8 7 7 8 7 6 5 5 5 5 5 4 5 5 6 4 5 5 6 7 10 10 10 11 10 10 9 7 4
2 5 3 4 6 1 3 3 2 10 2 6 12 16 15 13 11 13 9 10 10 9 6 7 8 6 7 4 3 2 3 3 3 5 5 5 4 4 3 3 3 4 6 4 5 5 4 5 4
1 7 6 4 3 3 6 5 4 2 6 11 17 20 14 14 13 14 11 9 8 7 9 9 8 7 6 4 5 4 4 3 3 5 6 4 3 4 4 3 4 4 3 5 5 3 5 6 6
2 5 8 3 6 4 1 2 6 4 3 15 12 13 13 12 8 7 10 10 9 8 8 9 8 7 7 7 5 4 5 4 5 5 6 4 5 5 4 4 4 4 3 4 4 4 5 5 6
1 5 10 4 5 1 5 2 2 2 9 15 16 10 10 10 10 6 7 8 10 8 8 7 8 8 7 6 6 5 4 6 5 4 6 7 5 4 4 4 5 4 4 4 5 5 5 5 4
4 5 6 4 2 4 2 1 5 6 9 15 11 9 8 9 8 10 9 7 9 6 8 8 8 7 7 7 7 5 5 5 5 6 7 7 7 6 6 5 4 4 4 6 4 5 4 5 6
3 4 3 1 1 2 3 8 3 7 14 10 9 8 9 9 10 8 8 8 8 7 8 9 7 7 7 6 5 4 5 4 5 5 5 7 7 7 5 4 4 4 4 4 3 4 5 5 4
3 6 5 3 5 3 3 4 3 6 9 11 9 9 10 8 7 8 9 9 9 9 8 7 7 8 8 6 5 5 6 5 4 4 4 6 6 6 6 5 5 5 4 4 3 3 4 5 6
7 8 11 6 4 4 1 3 2 6 8 10 10 9 8 8 12 8 9 8 6 4 4 4 5 4 3 0 2 2 2 4 3 4 4 5 4 6 5 4 4 3 3 3 2 2 2 3 3
7 3 5 3 2 3 4 4 3 4 6 6 7 7 7 7 4 5 7 7 9 8 7 6 4 3 2 1 1 2 3 2 1 3 5 4 2 1 2 1 2 2 2 2 3 2 3 4 1
5 7 3 1 5 2 2 2 1 3 4 5 8 8 8 7 7 8 8 9 9 6 7 7 6 6 4 2 0 0 0 1 1 2 4 5 4 5 3 3 3 3 2 3 1 0 2 3 1
10 13 5 4 3 1 2 1 3 2 3 4 6 6 6 8 8 6 8 7 6 7 6 6 6 6 6 5 2 2 2 2 3 4 3 4 5 4 4 4 3 2 2 3 3 3 2 5 3
5 10 6 7 3 4 2 5 2 3 6 4 5 6 6 7 6 6 6 6 6 4 4 6 6 6 6 7 5 5 2 2 1 2 2 4 6 5 4 4 4 4 3 4 3 3 2 3 6
4 12 8 3 4 3 3 2 3 3 3 6 5 8 5 6 8 5 6 5 5 5 5 5 6 7 7 7 6 4 3 2 2 3 5 6 5 6 6 5 4 4 3 4 4 4 4 3 4
15 12 6 4 3 2 5 3 4 5 5 3 4 4 8 7 7 4 5 5 5 5 6 6 7 6 7 7 7 7 6 5 4 4 4 4 4 4 6 6 5 5 5 5 4 5 5 4 4
9 12 3 3 1 3 2 6 6 3 6 7 11 9 9 9 4 5 6 5 5 5 5 5 6 6 6 7 7 6 5 5 5 5 4 6 4 4 6 6 6 4 5 5 5 5 5 5 4
14 4 5 5 5 3 4 6 5 3 4 9 10 10 9 9 7 6 6 6 5 5 6 6 6 6 6 5 5 5 6 4 3 4 4 3 3 4 6 6 6 6 6 5 5 4 4 5 4
5 3 5 8 3 3 3 4 3 4 8 8 12 12 10 8 8 7 6 5 5 5 5 5 5 6 6 6 6 6 6 7 6 6 4 4 4 4 6 6 6 6 6 6 5 4 5 4 4
7 7 6 3 5 2 3 3 4 3 7 7 8 12 8 7 7 6 6 5 4 4 4 6 7 7 6 7 6 6 6 7 6 6 7 7 6 6 7 7 7 7 6 6 6 5 5 6 4
4 3 4 5 3 5 4 5 4 3 6 10 9 9 10 8 7 6 4 5 6 5 6 7 7 8 7 6 6 7 6 6 6 6 6 7 6 7 7 7 7 6 7 6 6 6 6 6 7
2 6 4 5 4 0 3 3 4 2 6 7 7 8 8 7 7 5 5 7 6 6 7 7 6 6 6 5 6 6 6 7 8 7 7 7 8 7 7 7 6 7 7 7 6 7 6 7 8
Wind_Direction
31 95 68 51 58 73 267 250 113 112 51 335 67 104 119 61 119 186 130 144 130 140 151 144 142 144 138 127 118 125 125 118 113 108 105 102 102 103 99 103 111 112 109 105 97 89 84 79 74
79 116 41 90 93 245 272 256 142 147 145 120 86 88 49 87 78 117 103 146 138 142 145 137 134 139 135 132 130 129 127 126 127 123 120 115 112 107 105 100 96 78 120 115 110 103 94 87 77
125 66 74 93 204 234 273 260 159 143 184 156 94 62 110 124 102 145 135 143 134 137 143 144 141 142 141 141 142 141 140 139 135 129 125 121 116 114 110 110 97 79 81 123 120 120 113 100 82
48 19 17 100 244 292 206 224 170 132 46 53 106 69 41 253 142 135 136 140 133 137 137 151 148 151 153 153 154 151 147 141 136 134 134 126 123 124 123 114 107 97 79 72 131 136 125 121 112
41 68 57 259 246 243 228 183 209 114 109 73 94 121 52 15 113 129 139 143 139 139 140 148 153 157 160 162 161 159 155 148 143 141 139 132 131 141 139 134 123 110 92 78 73 137 145 152 247
40 89 76 210 265 222 17 225 145 113 97 157 76 94 172 113 126 141 140 141 141 140 141 144 144 148 151 162 168 170 171 156 157 158 155 153 149 153 160 162 164 165 182 218 163 158 199 229 261
89 94 222 170 271 221 219 178 146 145 135 154 141 81 140 146 138 137 135 125 130 129 127 130 140 145 146 155 170 193 184 161 166 172 169 164 169 184 191 196 207 215 226 235 246 247 258 266 271
168 104 263 227 216 269 209 161 136 131 140 116 139 157 181 183 140 124 122 121 123 131 136 146 151 155 158 164 173 178 160 167 179 185 194 187 200 212 220 222 229 231 233 237 242 242 248 261 271
86 21 244 254 192 242 165 142 184 48 113 78 56 154 169 135 131 119 117 112 127 144 155 160 164 174 171 174 181 167 170 180 191 188 196 200 206 220 220 218 225 235 234 233 235 238 241 250 258
128 176 229 218 299 286 308 152 153 104 112 46 50 74 136 130 144 143 156 161 166 168 178 175 174 182 180 185 178 189 191 196 197 197 202 209 221 228 220 223 231 238 241 243 245 248 253 261 255
241 224 235 284 267 161 231 152 128 124 206 193 155 142 150 147 145 155 167 171 179 181 180 189 186 183 171 189 172 194 192 198 213 224 219 223 226 234 230 241 242 240 241 250 253 260 250 245 242
348 259 247 252 295 327 167 154 101 170 212 150 156 152 154 161 162 165 169 176 178 181 192 190 189 181 188 177 181 193 196 200 211 218 215 208 225 231 234 231 228 231 215 231 234 242 247 248 244
203 308 286 263 292 288 140 204 182 232 79 125 135 153 159 161 168 169 170 176 181 187 190 182 180 190 185 183 185 188 201 196 218 221 225 207 215 222 224 230 226 227 227 230 242 241 246 249 250
10 276 271 278 263 260 144 213 220 96 126 132 151 163 162 165 171 165 179 180 181 188 194 181 185 191 178 184 189 200 197 209 209 219 223 217 216 220 222 235 237 236 222 227 226 229 239 247 242
305 337 300 247 253 218 103 96 216 136 135 145 160 165 162 177 184 189 187 184 183 188 184 190 194 192 187 193 196 202 208 206 211 215 215 217 214 220 221 225 238 240 238 245 247 252 249 251 243
184 313 228 164 151 277 121 212 227 153 139 158 163 172 177 191 194 200 189 188 197 181 185 194 192 192 201 204 207 208 216 219 216 213 223 229 225 217 227 237 243 243 247 242 252 251 262 256 254
209 202 208 179 66 315 157 184 202 162 155 165 179 183 187 198 209 213 204 195 197 196 189 190 194 203 203 209 213 223 226 227 236 241 222 234 233 223 216 225 240 234 244 246 248 269 241 270 274
174 187 208 207 16 357 241 178 148 158 158 182 183 192 188 188 210 202 206 205 190 192 194 198 198 218 231 48 262 265 256 264 254 249 248 247 245 250 230 236 245 243 259 275 298 291 310 278 299
132 110 145 12 347 297 256 171 186 140 120 166 189 183 183 193 63 61 64 80 83 47 62 47 81 25 145 164 219 263 241 237 311 334 299 291 298 350 278 311 332 338 291 338 19 331 308 298 271
162 143 143 337 353 98 284 144 296 167 151 161 155 157 156 111 77 60 62 64 63 68 54 49 52 42 39 53 44 82 59 22 122 360 21 31 32 30 35 41 30 20 345 334 316 212 301 278 300
188 167 140 127 343 57 223 277 200 189 135 140 123 116 96 130 110 80 62 60 54 47 36 46 50 55 47 36 41 15 35 26 14 17 7 15 37 37 40 42 47 18 358 327 330 328 300 295 282
150 173 132 113 160 166 313 197 305 214 203 181 193 100 96 83 83 92 81 61 57 42 46 54 51 47 35 28 46 46 46 57 3 3 325 352 7 359 11 16 17 10 359 340 323 313 286 289 290
143 120 145 129 96 88 349 93 247 260 212 223 169 108 100 113 117 92 116 107 68 48 51 56 58 47 38 46 57 64 60 23 349 15 12 11 7 18 8 9 7 9 354 328 320 318 313 291 291
138 105 85 76 122 187 178 127 269 216 181 142 80 101 111 88 101 117 82 95 80 58 56 60 60 42 40 46 49 57 54 23 23 11 13 358 2 8 19 3 3 357 348 337 326 321 318 314 312
147 138 87 82 146 194 179 178 241 222 206 169 153 156 139 107 128 135 115 96 83 74 66 72 67 54 42 46 45 43 44 41 37 24 12 4 355 356 350 352 353 344 338 333 333 326 318 313 309
166 155 153 144 173 173 126 212 251 270 266 124 124 125 114 135 165 147 137 126 121 96 69 65 63 59 46 42 36 33 36 35 30 23 14 7 352 326 335 343 345 340 336 332 327 317 316 314 309
185 160 152 99 1 79 202 263 329 52 71 119 129 133 152 156 158 145 132 121 109 96 90 98 86 68 49 44 39 30 29 29 17 7 15 1 346 339 345 341 337 334 329 325 322 312 304 298 280
178 167 80 21 136 183 257 250 216 155 152 146 148 156 156 159 144 137 131 127 99 102 96 74 69 62 46 44 36 39 29 32 25 25 17 10 355 355 348 345 341 335 332 331 330 314 301 300 290
131 147 86 113 125 148 146 247 196 207 207 179 179 169 162 159 152 153 132 108 107 99 82 72 58 56 43 46 43 49 31 37 38 31 16 7 356 354 349 340 334 334 329 323 320 310 302 303 300
98 135 136 124 227 260 140 256 330 335 225 193 166 162 169 163 173 162 154 137 121 98 80 79 71 67 55 49 52 42 31 26 29 17 6 358 358 348 340 335 332 330 322 317 310 307 300 293 298